Powrót do katalogu

COSMOS 336

AktywnyMilitariaLEO
NORAD 4383·PAYLOAD·🇷🇺 Russia

Wystrzelony Apr 25, 1970 z Plesetsk Cosmodrome

Loading…

Następne Przeloty (najbliższe 24 godziny)

TLE

ŚwieżeSource: Space-Track

Epoka: Sep 14, 2026, 08:51 UTC

1 04383U 70036A   26257.36937933 -.00000027  00000-0 -74784-4 0  9994
2 04383  74.0261 236.1351 0014623 359.5335 153.9199 12.47664614568018

Śledź COSMOS 336 w czasie rzeczywistym z AllMySat

Download on the App Store